Back to catalog

BREEZE-M DEB

LostHEO
NORAD 38560·DEBRIS·🇷🇺 Russia

Launched Feb 28, 2006 from Baikonur Cosmodrome

Loading…

Next Passes (next 24 hours)

TLE

StaleSource: Space-Track

Epoch: Jun 10, 2012, 15:38 UTC

1 38560U 06006DA  12162.65170947  .00009600  00000-0  10944-1 0  9999
2 38560  51.8189 277.7288 5110418 128.9253 288.5392  5.25376337 42494

Track BREEZE-M DEB in real time with AllMySat

Download on the App Store